User: anonymous   Login
Location: Squirrel Cove
(50.1074°N, 124.9139°W)
Time: 11:06:46
(UTC-07:00)
Language:

PicSat - Orbit

View from above orbital plane
View from above orbital plane
View from above satellite
View from above satellite

Ground track
Ground track

The orbit data is extracted from the following two-line orbital elements,

1 43131U 18004W   22135.77031384  .00034977  00000-0  10401-2 0  9999
2 43131  97.3768 215.0041 0008055 110.8773 249.3334 15.34631399241562
Epoch (UTC): 15 May 2022 18:29:15
Eccentricity: 0.0008055
inclination: 97.3768°
perigee height: 456 km
apogee height: 467 km
right ascension of ascending node: 215.0041°
argument of perigee: 110.8773°
revolutions per day: 15.34631399
mean anomaly at epoch: 249.3334°
orbit number at epoch: 24156

The dashed part of the orbit path shows where the satellite is in the earth's shadow,  

DLR